Fond du Lac, WI

11:58 AM CDT on August 24, 2016 (GMT -0500)
Fond du Lac County

Weather History for KFLD - March, 2013

Change the Weather History Date:

Sunday, March 31, 2013

  Actual Average Record
Temperature  
Mean Temperature 38 °F -  
Max Temperature 46 °F 48 °F 81 °F (1986)
Min Temperature 30 °F 29 °F 2 °F (1969)
Degree Days  
Heating Degree Days 26    
Moisture  
Dew Point 31 °F    
Average Humidity 78    
Maximum Humidity 93    
Minimum Humidity 54    
Precipitation  
Precipitation 0.00 in - - ()
Sea Level Pressure  
Sea Level Pressure 29.76 in    
Wind  
Wind Speed 11 mph (West)    
Max Wind Speed 25 mph    
Max Gust Speed 34 mph    
Visibility 7 miles    
Events Fog , Snow    
Averages and records for this station are not official NWS values.
T = Trace of Precipitation, MM = Missing Value Source: NWS Daily Summary

Daily Weather History Graph

Daily Weather History Graph

Search for Another Location

Airport or City:

Trip Planner

Search our weather history database for the weather conditions in past years. The results will help you decide how hot, cold, wet, or windy it might be!

Date:

Astronomy

Mar. 31, 2013 Rise Set
Actual Time 6:36 AM CDT 7:19 PM CDT
Civil Twilight 6:07 AM CDT 7:49 PM CDT
Nautical Twilight 5:33 AM CDT 8:23 PM CDT
Astronomical Twilight 4:57 AM CDT 8:59 PM CDT
Moon No Moon Rise 9:16 AM CDT (3/31)
Length of Visible Light 13h 41m
Length of Day
12h 43m
Waning Gibbous, 77% of the Moon is Illuminated
Mar 31
Waning Gibbous
Apr 2
Last Quarter
Apr 10
New
Apr 18
First Quarter
Apr 25
Full

Hourly Weather History & Observations

Time (CDT) Temp. Windchill Dew Point Humidity Pressure Visibility Wind Dir Wind Speed Gust Speed Precip Events Conditions
12:19 AM 41.0 °F 35.2 °F 37.4 °F 87% 29.79 in 5.0 mi West 9.2 mph - N/A   Overcast
12:46 AM 39.2 °F 33.6 °F 37.4 °F 93% 29.78 in 4.0 mi WNW 8.1 mph - N/A   Overcast
12:53 AM 39.9 °F 33.9 °F 37.0 °F 89% 29.80 in 4.0 mi WNW 9.2 mph - N/A   Overcast
1:20 AM 39.2 °F 34.2 °F 37.4 °F 93% 29.78 in 5.0 mi West 6.9 mph - N/A   Overcast
1:53 AM 39.0 °F 34.8 °F 36.0 °F 89% 29.79 in 5.0 mi West 5.8 mph - N/A   Overcast
2:53 AM 37.9 °F 34.4 °F 34.0 °F 86% 29.78 in 7.0 mi West 4.6 mph - N/A   Overcast
3:10 AM 37.4 °F 33.8 °F 35.6 °F 93% 29.75 in 7.0 mi West 4.6 mph - N/A   Overcast
3:53 AM 37.0 °F 30.4 °F 34.0 °F 89% 29.76 in 8.0 mi West 9.2 mph - N/A   Overcast
4:53 AM 37.0 °F 31.6 °F 34.0 °F 89% 29.76 in 5.0 mi WSW 6.9 mph - N/A   Overcast
5:28 AM 37.4 °F 32.1 °F 35.6 °F 93% 29.73 in 4.0 mi WSW 6.9 mph - N/A   Overcast
5:53 AM 37.9 °F 33.5 °F 35.1 °F 89% 29.75 in 4.0 mi WSW 5.8 mph - N/A   Overcast
6:21 AM 37.4 °F 30.3 °F 35.6 °F 93% 29.72 in 5.0 mi West 10.4 mph 18.4 mph N/A   Overcast
6:53 AM 37.9 °F 31.5 °F 35.1 °F 89% 29.74 in 4.0 mi West 9.2 mph - N/A   Overcast
7:53 AM 37.9 °F 33.5 °F 35.1 °F 89% 29.73 in 4.0 mi WSW 5.8 mph - N/A   Overcast
8:53 AM 37.9 °F 30.9 °F 35.1 °F 89% 29.72 in 4.0 mi West 10.4 mph - N/A   Overcast
9:53 AM 37.9 °F 30.9 °F 34.0 °F 86% 29.72 in 5.0 mi West 10.4 mph - N/A   Overcast
10:53 AM 39.0 °F 31.4 °F 34.0 °F 82% 29.72 in 7.0 mi West 12.7 mph - N/A   Overcast
11:01 AM 39.2 °F 33.0 °F 33.8 °F 81% 29.70 in 7.0 mi WSW 9.2 mph - N/A   Mostly Cloudy
11:53 AM 41.0 °F 33.9 °F 33.1 °F 73% 29.71 in 8.0 mi West 12.7 mph 17.3 mph N/A   Scattered Clouds
12:53 PM 43.0 °F 36.8 °F 32.0 °F 65% 29.70 in 10.0 mi West 11.5 mph 19.6 mph N/A   Clear
1:53 PM 45.0 °F 37.6 °F 30.9 °F 58% 29.70 in 10.0 mi West 17.3 mph - N/A   Clear
2:53 PM 41.0 °F 31.6 °F 30.0 °F 65% 29.72 in 10.0 mi WNW 20.7 mph 27.6 mph N/A   Overcast
3:04 PM 39.2 °F 29.8 °F 30.2 °F 70% 29.71 in 10.0 mi WNW 18.4 mph 29.9 mph N/A   Overcast
3:27 PM 39.2 °F 29.8 °F 30.2 °F 70% 29.72 in 10.0 mi WNW 18.4 mph 26.5 mph N/A   Overcast
3:53 PM 39.0 °F 30.6 °F 30.0 °F 70% 29.74 in 10.0 mi West 15.0 mph - N/A   Overcast
4:34 PM 39.2 °F 30.8 °F 30.2 °F 70% 29.72 in 10.0 mi West 15.0 mph 21.9 mph N/A   Scattered Clouds
4:53 PM 39.0 °F 31.4 °F 30.0 °F 70% 29.75 in 10.0 mi West 12.7 mph 21.9 mph N/A   Scattered Clouds
5:49 PM 35.6 °F 23.4 °F 28.4 °F 75% 29.74 in 1.5 mi NW 25.3 mph 33.4 mph 0.00 in Snow Light Snow
5:53 PM 34.0 °F 22.4 °F 28.9 °F 82% 29.77 in 1.0 mi WNW 20.7 mph 33.4 mph 0.00 in Snow Light Snow
6:03 PM 33.8 °F 22.5 °F 28.4 °F 81% 29.75 in 0.5 mi WNW 19.6 mph 34.5 mph 0.00 in Fog , Snow Snow
6:10 PM 33.8 °F 24.3 °F 28.4 °F 81% 29.74 in 1.8 mi WNW 13.8 mph 25.3 mph 0.00 in Snow Light Snow
6:12 PM 33.8 °F 24.3 °F 28.4 °F 81% 29.74 in 3.0 mi WNW 13.8 mph - 0.00 in Snow Light Snow
6:22 PM 35.6 °F 27.5 °F 26.6 °F 70% 29.75 in 9.0 mi WNW 11.5 mph - 0.00 in Snow Light Snow
6:53 PM 35.1 °F 26.4 °F 27.0 °F 72% 29.78 in 10.0 mi WNW 12.7 mph - 0.00 in   Mostly Cloudy
7:53 PM 35.1 °F 27.9 °F 26.1 °F 70% 29.81 in 10.0 mi West 9.2 mph - N/A   Mostly Cloudy
8:53 PM 34.0 °F 23.8 °F 19.0 °F 54% 29.84 in 10.0 mi WNW 16.1 mph - N/A   Clear
9:53 PM 33.1 °F 23.9 °F 19.0 °F 56% 29.88 in 10.0 mi NNW 12.7 mph - N/A   Scattered Clouds
10:53 PM 32.0 °F 21.6 °F 17.1 °F 54% 29.90 in 10.0 mi NNW 15.0 mph - N/A   Partly Cloudy
11:53 PM 30.9 °F 20.2 °F 17.1 °F 57% 29.91 in 10.0 mi NNW 15.0 mph - N/A   Overcast